User: anonymous   Login
Location: Fort Wayne
(41.1310°N, 85.1290°W)
Time: 02:11:58
(UTC-04:00)
Language:

COSMOS 2428 - Orbit

View from above orbital plane
View from above orbital plane
View from above satellite
View from above satellite

Ground track
Ground track

The orbit data is extracted from the following two-line orbital elements,

1 31792U 07029A   17080.94176994 -.00000047 +00000-0 +55716-6 0  9997
2 31792 070.9122 235.2921 0005280 036.6159 323.5321 14.12254010501661
Epoch (UTC): 21 March 2017 22:36:08
Eccentricity: 0.0005280
inclination: 70.9122°
perigee height: 848 km
apogee height: 855 km
right ascension of ascending node: 235.2921°
argument of perigee: 36.6159°
revolutions per day: 14.12254010
mean anomaly at epoch: 323.5321°
orbit number at epoch: 50166

The dashed part of the orbit path shows where the satellite is in the earth's shadow,  

DLR